Location: Wanzleben
(52.0609°N, 11.4408°E)
Time: 15:00:13
(UTC+00:00)

COSMOS 2406 - Pass Details

Date: 18 September 2020
Orbit: 844 x 863 km, 71.0° (Epoch: 21 October)

Event Time Altitude Azimuth Distance (km) Brightness Sun altitude
Rises 19:02:00 0° 330° (NNW) 3,417 7.3 -15.8°
Reaches altitude 10° 19:04:40 10° 339° (NNW) 2,478 6.3 -16.2°
Maximum altitude 19:09:54 36° 46° (NE) 1,307 4.0 -16.9°
Enters shadow 19:12:19 26° 91° (E) 1,630 4.2 -17.3°
